{"data":{"norad_id":60555,"intl_designator":"2024-149CR","name":"UM5-EOSAT","alt_names":[],"object_type":"PAYLOAD","status":"ACTIVE","operator":null,"country":"MA","launch_date":"2024-08-16","launch_site_code":"AFWTR","launch_vehicle":null,"mission":null,"orbit_class":"UNKNOWN","rcs_meters":null,"size_class":null,"mass_kg":null,"dimensions":null,"purposes":[],"wikipedia_slug":null,"has_3d_model":false,"image_url":null,"decayed_at":null,"tle_current":{"epoch":"2026-05-25T04:18:28.728288Z","epoch_age_seconds":70276,"freshness":"FRESH","line1":"1 60555U 24149CR  26145.17949917  .00003213  00000+0  25401-3 0  9999","line2":"2 60555  97.6655 224.1998 0007879 181.9566 178.1629 15.01332370 96760","mean_motion":15.0133237,"eccentricity":0.0007879,"inclination_deg":97.6655,"raan_deg":224.1998,"arg_perigee_deg":181.9566,"mean_anomaly_deg":178.1629,"bstar":0.00025401,"rev_number":9676,"period_min":95.914803995067,"perigee_km":557.31803175916,"apogee_km":568.25553946053,"semimajor_km":6940.9237856098,"source":"CELESTRAK","updated_at":"2026-05-25T13:38:02.153611Z"}}}